Weather History for Nome, AK

Change the Weather History Date:

Saturday, April 6, 2013

  Actual Average Record
Temperature  
Mean Temperature 6 °F 15 °F  
Max Temperature 10 °F 23 °F 41 °F (1940)
Min Temperature 1 °F - -29 °F (1968)
Degree Days  
Heating Degree Days 59 50  
Month to date heating degree days 297 306  
Since 1 July heating degree days 11586 11284  
Cooling Degree Days 0    
Month to date cooling degree days 0  
Year to date cooling degree days 0  
Moisture  
Dew Point -7 °F    
Average Humidity 0    
Maximum Humidity 0    
Minimum Humidity 0    
Precipitation  
Precipitation 0.00 in 0.02 in 0.37 in (2001)
Month to date precipitation T 0.13  
Year to date precipitation 2.16 2.65  
Snow  
Snow 0.00 in 0.30 in 4.00 in (2001)
Month to date snowfall 0.1 1.7  
Since 1 July snowfall 50.5 67.3  
Snow Depth 20.00 in    
Sea Level Pressure  
Sea Level Pressure 30.01 in    
Wind  
Wind Speed 11 mph (North)    
Max Wind Speed 31 mph    
Max Gust Speed 38 mph    
Visibility 10 miles    
Events Snow    
T = Trace of Precipitation, MM = Missing Value Source: NWS Daily Summary

Daily Weather History Graph

Daily Weather History Graph

Search for Another Location

Airport:

Trip Planner

Search our weather history database for the weather conditions in past years. The results will help you decide how hot, cold, wet, or windy it might be!

Date:

Astronomy

Apr. 06, 2013 Rise Set
Actual Time 7:59 AM AKDT 10:10 PM AKDT
Civil Twilight 7:06 AM AKDT 11:03 PM AKDT
Nautical Twilight 5:56 AM AKDT 12:15 AM AKDT
Astronomical Twilight 4:03 AM AKDT 2:17 AM AKDT
Moon 7:01 AM AKDT (4/6) 5:50 PM AKDT (4/6)
Length of Visible Light 15h 56m
Length of Day
14h 11m
Waning Crescent, 14% of the Moon is Illuminated
Apr 6
Waning Crescent
Apr 10
New
Apr 18
First Quarter
Apr 25
Full
May 2
Last Quarter

Hourly Weather History & Observations

Time (AKDT) Temp. Windchill Dew Point Humidity Pressure Visibility Wind Dir Wind Speed Gust Speed Precip Events Conditions
12:53 AM 10.0 °F 1.8 °F -2.9 °F 56% 30.01 in 10.0 mi Variable 4.6 mph - N/A   Scattered Clouds
1:53 AM 9.0 °F -2.2 °F -5.1 °F 53% 30.01 in 10.0 mi Variable 6.9 mph - N/A   Scattered Clouds
2:53 AM 8.1 °F -2.0 °F -6.0 °F 53% 30.00 in 10.0 mi Variable 5.8 mph - N/A   Partly Cloudy
3:28 AM 8.6 °F -12.3 °F -5.8 °F 52% 29.98 in 10.0 mi North 24.2 mph 32.2 mph N/A   Clear
3:53 AM 7.0 °F -12.6 °F -5.1 °F 58% 29.98 in 10.0 mi NNE 19.6 mph 27.6 mph N/A   Clear
4:53 AM 8.1 °F -9.6 °F -6.0 °F 53% 29.98 in 10.0 mi North 16.1 mph 21.9 mph N/A   Clear
5:53 AM 5.0 °F -10.8 °F -6.0 °F 61% 29.99 in 10.0 mi NNW 11.5 mph 24.2 mph N/A   Clear
6:53 AM 5.0 °F -6.9 °F -8.0 °F 55% 29.99 in 10.0 mi NW 6.9 mph - N/A   Clear
7:53 AM 5.0 °F -8.1 °F -9.0 °F 52% 29.99 in 10.0 mi WSW 8.1 mph 23.0 mph N/A   Partly Cloudy
8:53 AM 5.0 °F -6.9 °F -9.0 °F 52% 29.98 in 10.0 mi Variable 6.9 mph 25.3 mph N/A   Partly Cloudy
9:53 AM 7.0 °F -7.5 °F -9.0 °F 48% 30.00 in 10.0 mi NNE 10.4 mph 16.1 mph N/A   Partly Cloudy
10:53 AM 6.1 °F - -8.0 °F 53% 30.00 in 10.0 mi Calm Calm - N/A   Partly Cloudy
11:53 AM 6.1 °F -10.2 °F -9.0 °F 50% 30.00 in 10.0 mi NNE 12.7 mph 25.3 mph N/A   Partly Cloudy
12:53 PM 6.1 °F -5.6 °F -9.9 °F 48% 30.02 in 10.0 mi Variable 6.9 mph - N/A   Partly Cloudy
1:53 PM 6.1 °F -10.9 °F -7.1 °F 55% 30.03 in 10.0 mi NNW 13.8 mph - N/A   Scattered Clouds
2:53 PM 6.1 °F -11.6 °F -8.0 °F 53% 30.02 in 10.0 mi NNE 15.0 mph 23.0 mph N/A   Scattered Clouds
3:53 PM 6.1 °F -8.7 °F -7.1 °F 55% 30.04 in 10.0 mi NE 10.4 mph - N/A   Scattered Clouds
4:53 PM 6.1 °F -6.8 °F -7.1 °F 55% 30.03 in 10.0 mi NNW 8.1 mph - N/A   Scattered Clouds
5:53 PM 7.0 °F -9.1 °F -9.0 °F 48% 30.04 in 10.0 mi North 12.7 mph - N/A   Scattered Clouds
6:53 PM 7.0 °F -8.3 °F -7.1 °F 53% 30.04 in 10.0 mi North 11.5 mph - N/A   Scattered Clouds
7:01 PM 6.8 °F -11.8 °F -7.6 °F 52% 30.04 in 10.0 mi North 17.3 mph - N/A   Scattered Clouds
7:53 PM 6.1 °F -6.8 °F -8.0 °F 53% 30.03 in 10.0 mi North 8.1 mph - N/A   Scattered Clouds
8:53 PM 3.9 °F -13.7 °F -7.1 °F 60% 30.04 in 10.0 mi NNW 13.8 mph - N/A   Scattered Clouds
9:53 PM 5.0 °F -14.7 °F -9.0 °F 52% 30.03 in 10.0 mi North 18.4 mph 26.5 mph N/A   Scattered Clouds
10:53 PM 3.0 °F -20.6 °F -8.0 °F 60% 30.01 in 10.0 mi North 26.5 mph 38.0 mph N/A Snow Low Drifting Snow
11:53 PM 1.0 °F -6.7 °F -9.0 °F 63% 30.05 in 10.0 mi ENE 3.5 mph - N/A   Scattered Clouds